Helicity
30 29 33 33 36 27 32 33 32 26 25 28 25 32 34 42 47 65 94 116 100 90 88 91 94 98 99 104 114 117 99 91 77 65 83 103 114 146 171 161 145 122 109
39 37 43 44 46 36 32 30 31 28 24 28 25 38 48 54 66 68 83 104 98 92 92 88 84 85 84 84 89 93 82 72 73 74 75 90 103 123 150 164 150 157 180
45 45 51 49 52 44 30 29 31 26 32 36 38 46 52 60 52 64 73 86 97 91 93 93 89 86 84 88 84 78 74 65 59 59 69 91 99 112 124 146 125 127 131
48 50 49 60 53 42 34 33 36 33 37 44 45 54 58 61 72 77 79 78 91 85 93 100 87 81 80 81 82 82 74 72 69 68 67 81 93 105 115 122 135 106 101
51 49 56 64 51 47 43 37 42 48 53 61 52 61 66 74 74 76 87 82 95 76 90 99 73 73 77 78 79 81 76 67 66 64 70 75 86 93 104 111 116 127 86
57 53 63 64 56 52 53 53 57 60 64 61 45 55 58 63 68 88 87 77 99 92 99 95 88 83 67 74 77 75 78 79 74 61 54 59 76 93 90 100 105 110 103
62 63 69 67 67 70 69 67 69 69 71 67 33 58 69 75 80 83 83 91 105 90 85 87 77 85 83 89 72 106 85 80 78 75 66 56 54 67 77 79 92 94 88
73 70 74 80 78 71 82 85 83 69 81 87 73 48 95 97 73 105 91 94 94 77 72 80 88 78 87 92 103 83 119 120 120 104 76 60 52 55 76 82 62 71 72
88 82 84 79 85 83 95 86 87 99 97 89 94 92 98 147 116 97 87 80 88 89 92 100 73 84 89 84 80 106 131 117 118 124 123 111 96 80 72 61 58 40 42
95 90 85 85 88 89 90 101 100 102 88 110 83 105 106 127 151 145 133 109 93 54 90 78 100 88 97 96 106 104 115 108 104 97 90 88 91 97 91 82 66 45 4
94 91 87 88 94 93 108 108 106 100 102 108 125 127 127 117 110 126 135 132 99 114 101 82 74 89 120 105 112 156 120 97 83 79 78 76 73 71 85 103 141 109 100
93 91 92 97 105 106 108 115 113 110 128 137 137 137 135 136 153 144 142 124 123 85 100 92 105 100 107 89 79 92 90 82 71 88 88 78 81 82 82 80 141 179 178
94 101 102 110 108 119 123 123 131 145 151 149 151 150 138 129 128 118 117 108 114 106 97 95 105 130 76 101 81 112 75 56 61 53 58 67 95 89 79 76 89 98 146
109 126 109 118 125 126 134 142 149 153 153 154 152 150 143 126 113 98 99 100 121 125 119 77 122 156 116 100 86 62 63 50 50 61 69 69 63 55 81 63 60 91 114
128 115 122 130 137 141 148 155 163 165 163 164 159 144 128 115 109 101 97 101 128 159 129 115 126 134 111 90 85 84 69 42 40 43 44 53 59 68 70 66 81 75 83
123 130 131 135 142 150 154 161 163 165 164 160 141 128 116 117 114 124 128 120 123 135 170 157 133 105 114 121 102 78 72 48 36 32 42 46 43 44 50 67 81 72 94
130 129 133 139 144 143 149 148 149 152 148 137 130 127 124 120 138 136 127 133 151 163 172 161 141 115 101 102 100 86 80 78 71 35 41 51 51 49 42 46 54 64 74
119 126 129 125 128 132 132 135 142 140 135 133 128 137 138 129 127 117 135 145 163 164 177 168 154 147 138 112 111 104 92 84 80 53 46 55 52 52 55 47 46 47 49
123 122 115 119 123 126 126 125 129 130 134 138 140 148 148 139 142 145 163 181 186 192 194 195 186 153 134 103 98 103 102 92 78 50 34 25 36 50 49 46 48 44 41
106 109 114 117 117 116 115 124 135 143 142 148 144 143 138 138 153 160 177 187 182 188 193 207 202 182 156 125 125 106 104 113 100 94 81 58 51 48 46 48 41 38 49
109 108 109 109 105 108 125 169 148 139 142 147 149 143 154 166 166 156 175 164 167 181 190 195 200 187 165 143 116 99 113 129 113 102 80 73 76 74 72 56 51 42 20
102 108 112 111 109 115 184 155 145 149 149 158 171 169 175 173 136 126 111 104 122 149 145 154 164 194 182 153 113 108 104 126 120 86 69 83 82 87 59 48 36 50 61
120 107 100 119 126 133 167 150 150 156 161 155 168 167 157 139 134 133 136 123 107 76 74 118 151 143 114 113 106 93 80 77 79 78 57 63 73 77 44 40 22 28 10
106 118 125 128 132 129 154 144 151 140 148 139 145 128 126 123 138 134 141 135 115 102 100 119 119 119 112 96 90 98 95 97 88 79 55 61 53 43 52 54 24 19 28
124 127 125 121 126 131 145 152 153 139 142 137 122 122 121 118 101 109 120 117 110 102 87 43 53 72 61 38 57 92 95 99 75 68 68 59 51 41 34 34 29 -12 4
116 114 112 112 101 119 119 141 153 156 149 149 140 125 106 117 109 111 127 124 121 103 87 66 65 35 31 72 42 51 69 95 99 56 45 47 55 56 13 39 33 37 74
Wind_Speed
33 36 39 42 45 47 49 50 51 51 50 50 49 48 47 46 46 44 42 44 47 48 48 46 45 44 43 43 43 47 48 49 52 54 57 55 54 54 53 49 46 45 44
33 36 39 42 45 48 49 50 51 50 49 49 48 49 48 46 46 43 43 40 44 46 47 46 46 46 45 44 45 47 50 52 54 56 55 56 55 54 53 52 46 43 41
33 36 40 43 46 48 49 49 50 49 49 50 50 49 48 48 45 41 42 43 40 41 45 46 47 48 49 48 48 49 53 55 55 56 57 56 58 58 56 54 49 46 43
33 37 40 43 45 47 49 49 49 51 51 51 51 49 49 48 46 43 43 43 43 45 42 45 46 47 49 51 51 51 53 56 58 58 59 60 59 58 59 57 55 52 47
33 36 40 42 45 47 48 49 50 51 53 53 51 49 49 48 46 45 45 45 45 45 48 45 47 47 49 53 54 54 55 57 61 61 60 60 62 62 60 61 59 58 53
32 36 39 42 45 46 47 49 50 50 49 54 51 49 47 46 45 47 48 48 47 48 49 50 53 50 51 53 57 60 60 59 62 64 64 63 62 63 63 62 62 61 58
32 36 39 41 44 46 46 47 48 51 52 55 51 56 44 43 46 48 51 50 49 49 51 53 53 55 57 60 61 63 66 64 62 62 64 66 65 64 64 63 62 62 61
33 35 38 40 42 43 44 46 48 50 49 55 56 54 56 47 43 53 50 51 52 52 55 58 60 61 61 61 58 61 61 65 65 64 62 63 67 67 65 64 61 62 62
34 35 36 38 39 41 43 44 46 49 52 51 55 54 58 58 66 50 52 55 56 59 63 63 62 64 62 61 59 55 62 65 67 68 69 68 67 68 68 67 65 62 62
35 35 35 36 37 38 40 42 43 47 50 53 50 51 51 55 63 67 60 64 58 64 62 64 66 65 63 60 57 54 63 67 70 72 73 74 74 73 72 70 70 69 65
35 34 34 34 35 37 39 41 44 46 48 50 52 53 54 55 55 62 75 72 68 69 69 66 69 66 62 59 58 59 68 74 76 76 74 74 75 75 75 73 72 69 67
34 34 33 34 35 37 39 41 43 46 48 49 51 52 56 59 64 67 76 79 82 76 70 71 63 62 61 57 60 64 73 79 76 72 72 71 69 72 73 74 75 73 70
37 34 33 34 36 39 40 41 44 46 48 49 51 54 54 57 61 65 72 80 84 77 73 63 57 56 63 60 63 67 73 73 70 70 71 71 71 71 71 71 73 75 74
36 33 33 36 38 38 39 42 44 46 47 48 51 54 57 59 61 63 68 79 88 80 73 67 61 58 56 57 57 65 65 67 67 70 72 70 68 68 70 71 69 70 72
34 33 35 37 38 40 41 43 45 47 48 50 53 56 59 60 61 62 63 65 73 85 78 66 65 57 56 56 59 62 64 63 65 69 68 68 67 66 67 67 70 68 69
34 35 37 38 39 41 42 44 46 47 50 53 55 59 62 63 63 62 63 62 62 66 76 68 69 70 70 68 67 66 63 63 64 63 64 65 65 65 66 67 66 68 69
35 37 38 39 41 42 43 46 48 50 54 57 59 62 64 64 65 64 64 64 64 64 73 75 71 72 73 72 70 68 67 66 65 64 63 63 65 64 66 67 69 69 69
36 38 39 40 42 44 45 48 51 53 57 62 65 65 66 65 66 66 67 67 67 66 70 80 77 78 79 76 76 76 74 71 70 68 67 68 69 67 66 68 69 70 70
38 39 40 43 45 46 49 51 53 57 61 64 65 66 69 70 71 70 70 72 72 73 74 79 86 82 82 80 82 78 77 75 72 72 70 69 69 70 70 70 69 69 68
38 40 43 45 47 49 51 54 59 63 65 65 67 67 69 70 73 75 77 78 79 80 80 81 85 87 84 82 81 86 86 77 74 71 72 73 75 73 71 69 69 71 73
41 43 45 47 49 51 55 60 65 68 70 72 71 70 71 72 75 76 77 78 78 80 81 83 86 87 86 83 83 81 82 80 80 74 77 74 70 69 68 72 73 76 72
42 45 48 50 54 57 59 65 68 71 72 72 76 74 74 75 72 72 75 74 75 79 81 82 83 83 80 77 76 75 77 81 86 72 77 76 69 74 80 74 78 77 78
46 49 51 56 60 62 65 69 71 71 71 71 75 75 74 70 73 73 76 77 76 74 71 74 76 77 80 78 77 78 78 78 80 76 80 84 75 86 75 74 79 81 79
50 54 58 61 64 65 67 69 72 70 69 69 70 71 72 73 73 74 76 77 74 72 68 66 63 65 64 63 64 68 72 72 76 75 72 86 75 75 76 79 80 79 79
56 60 62 64 67 67 68 69 72 71 72 72 71 72 72 72 72 74 76 75 74 72 68 64 60 51 46 43 41 54 61 66 75 71 64 76 78 84 78 75 74 73 72
59 61 63 64 64 65 65 68 71 72 75 75 74 74 73 72 72 73 75 75 74 70 67 64 58 51 52 33 23 21 24 45 61 75 62 70 73 70 77 70 63 53 54
Wind_Direction
2 2 1 359 360 359 359 359 360 360 1 2 3 5 5 5 4 4 7 8 5 3 4 6 6 4 2 359 355 345 340 335 327 324 318 315 314 315 316 320 320 311 305
2 360 359 358 358 357 356 357 357 359 0 0 2 2 2 3 1 2 1 6 6 3 2 2 1 1 360 357 351 343 337 333 329 323 321 314 310 309 311 313 316 319 318
360 358 357 356 354 354 354 355 357 358 359 359 359 1 2 359 0 2 1 358 3 5 2 359 358 357 354 352 348 343 334 330 329 324 320 317 310 305 304 306 308 309 311
355 354 353 353 353 353 353 354 355 354 355 357 358 360 359 359 360 360 358 358 358 355 359 358 355 353 350 347 344 342 337 328 324 322 318 315 313 308 301 299 300 301 303
355 352 350 351 351 351 353 353 353 353 353 355 356 358 357 358 359 358 357 355 353 351 349 352 350 347 345 340 337 335 333 329 321 318 316 313 310 308 305 298 295 296 294
353 350 349 349 350 350 352 352 351 354 356 353 354 353 355 357 358 357 354 351 351 349 348 346 343 342 339 337 333 330 327 324 319 314 311 309 309 306 303 301 295 291 291
348 347 346 347 349 349 351 352 352 350 351 353 351 346 351 355 353 353 350 350 350 348 346 344 341 338 334 331 328 325 323 321 319 315 310 305 304 304 302 300 297 292 287
344 345 345 346 348 350 352 352 353 349 352 353 347 345 343 346 353 346 350 347 346 344 341 339 336 334 332 331 329 326 325 321 318 316 313 308 302 300 299 298 297 293 289
341 342 344 346 349 350 350 352 352 350 347 350 351 348 341 338 338 346 345 342 341 339 336 336 335 333 332 330 328 328 326 322 318 314 311 307 303 300 297 295 293 292 289
339 342 344 347 348 351 351 352 353 349 348 345 348 350 348 342 337 334 340 339 340 336 335 334 331 329 328 327 325 325 322 319 316 312 308 304 300 297 293 294 292 290 286
339 343 345 347 348 349 350 350 348 347 347 345 345 344 343 341 340 335 329 332 333 334 331 331 329 327 326 325 322 320 317 313 311 310 309 305 301 297 294 290 290 292 291
339 342 344 347 348 347 347 347 347 345 345 345 344 343 341 339 336 334 329 328 327 329 329 329 329 329 327 324 320 317 315 314 315 314 311 309 306 302 298 293 289 289 288
333 341 346 346 345 344 345 346 344 344 343 342 342 340 340 338 336 334 330 327 326 328 328 329 328 326 324 321 320 320 320 320 319 317 312 307 303 301 300 298 292 287 285
337 345 344 343 344 345 345 344 342 341 341 341 339 339 337 336 335 333 330 328 326 326 327 327 326 323 323 323 324 323 324 321 319 316 313 311 307 304 300 296 295 291 287
342 343 343 342 343 342 342 341 340 339 339 338 337 336 335 334 332 331 330 329 326 324 324 326 324 324 322 322 322 322 322 321 319 315 313 312 309 307 303 301 294 294 290
342 342 341 341 341 341 341 340 339 339 337 336 334 333 332 331 330 329 328 326 323 320 317 321 319 317 316 315 316 317 318 317 317 317 315 312 310 308 304 302 300 296 291
342 341 341 341 340 339 339 338 337 336 334 332 332 330 329 329 328 327 325 322 320 317 314 315 314 314 313 312 312 312 312 312 312 312 312 311 310 309 305 303 299 296 293
342 342 342 341 340 339 338 337 335 334 332 331 329 329 328 328 326 324 322 320 318 316 313 311 313 311 309 310 309 308 306 306 306 306 307 306 304 305 305 303 301 297 293
343 344 342 340 339 339 337 336 335 333 331 330 329 328 327 326 324 323 322 319 317 315 312 310 309 309 307 306 305 305 304 302 301 301 301 302 302 301 301 301 301 299 297
344 343 343 341 340 338 337 336 334 333 332 330 329 327 326 324 323 323 321 319 318 315 313 310 309 308 307 306 303 301 299 298 297 300 300 299 298 298 299 300 299 298 296
345 344 343 342 340 339 337 336 334 333 331 330 328 327 326 325 324 322 321 320 320 317 315 312 309 308 306 305 302 301 298 297 296 298 298 297 298 298 299 299 299 298 296
346 345 343 342 340 338 338 336 335 333 331 330 329 329 328 327 327 327 324 323 321 319 316 314 312 309 308 306 305 302 299 295 292 298 297 296 298 295 297 296 297 296 295
346 344 342 340 338 337 337 336 335 333 332 331 330 330 330 331 330 329 328 326 324 322 319 317 314 312 310 307 303 300 299 297 295 296 296 292 296 294 295 297 296 295 294
344 342 340 339 337 337 337 337 336 335 334 333 333 333 332 332 332 331 330 329 328 326 325 323 319 318 317 314 308 303 300 298 297 296 298 290 298 295 298 298 297 295 294
342 340 339 339 338 337 338 339 339 337 336 335 336 335 334 333 333 333 332 330 330 330 331 329 326 320 315 315 312 309 304 301 297 297 302 297 298 297 299 298 299 296 294
341 341 340 339 340 339 341 341 341 339 337 337 337 337 336 335 335 335 334 332 330 330 332 334 331 332 331 317 291 291 301 310 306 300 306 300 300 303 299 303 302 302 299